Easton, MD

9:06 PM EST on November 16, 2019 (GMT -0500)
Easton / Newnam

Weather History for KESN - September, 2019

Change the Weather History Date:

Monday, September 9, 2019

  Actual Average Record
Temperature  
Mean Temperature 75 °F -  
Max Temperature 84 °F 81 °F 96 °F (2016)
Min Temperature 66 °F 60 °F 47 °F (1949)
Cooling Degree Days 10    
Growing Degree Days 25 (Base 50)    
Moisture  
Dew Point 64 °F    
Average Humidity 78    
Maximum Humidity 94    
Minimum Humidity 37    
Precipitation  
Precipitation 0.00 in - - ()
Sea Level Pressure  
Sea Level Pressure 30.20 in    
Wind  
Wind Speed 1 mph (NE)    
Max Wind Speed 8 mph    
Max Gust Speed -    
Visibility 10 miles    
Events      
Averages and records for this station are not official NWS values.
T = Trace of Precipitation, MM = Missing Value Source: NWS Daily Summary

Daily Weather History Graph

Daily Weather History Graph

Search for Another Location

Airport or City:

Astronomy

Sep. 09, 2019 Rise Set
Actual Time 6:40 AM EDT 7:22 PM EDT
Civil Twilight 6:13 AM EDT 7:49 PM EDT
Nautical Twilight 5:41 AM EDT 8:21 PM EDT
Astronomical Twilight 5:08 AM EDT 8:53 PM EDT
Moon 5:13 PM EDT (9/9) 2:12 AM EDT (9/9)
Length of Visible Light 13h 36m
Length of Day
12h 42m
Waxing Gibbous, 83% of the Moon is Illuminated
Sep 9
Waxing Gibbous
Sep 14
Full
Sep 21
Last Quarter
Sep 28
New
Oct 5
First Quarter

Hourly Weather History & Observations

Time (EDT) Temp. Heat Index Dew Point Humidity Pressure Visibility Wind Dir Wind Speed Gust Speed Precip Events Conditions
12:00 AM 68.2 °F - 63.5 °F 85% 30.14 in 10.0 mi Calm Calm - N/A   Clear
12:20 AM 67.6 °F - 63.5 °F 87% 30.14 in 10.0 mi Calm Calm - N/A   Clear
12:40 AM 67.6 °F - 63.7 °F 87% 30.14 in 10.0 mi Calm Calm - N/A   Clear
1:00 AM 68.2 °F - 63.9 °F 86% 30.15 in 10.0 mi Calm Calm - N/A   Clear
1:20 AM 66.7 °F - 63.5 °F 89% 30.16 in 10.0 mi Calm Calm - N/A   Clear
1:40 AM 66.6 °F - 63.5 °F 90% 30.16 in 10.0 mi Calm Calm - N/A   Clear
2:00 AM 66.4 °F - 63.7 °F 91% 30.16 in 10.0 mi Calm Calm - N/A   Clear
2:20 AM 67.3 °F - 63.9 °F 89% 30.16 in 10.0 mi Calm Calm - N/A   Clear
2:40 AM 67.1 °F - 64.0 °F 90% 30.15 in 10.0 mi Calm Calm - N/A   Clear
3:00 AM 66.9 °F - 64.2 °F 91% 30.15 in 10.0 mi Calm Calm - N/A   Clear
3:20 AM 67.3 °F - 64.2 °F 90% 30.15 in 10.0 mi Calm Calm - N/A   Clear
3:40 AM 67.1 °F - 64.4 °F 91% 30.15 in 10.0 mi Calm Calm - N/A   Clear
4:00 AM 67.5 °F - 64.8 °F 91% 30.15 in 10.0 mi Calm Calm - N/A   Clear
4:20 AM 68.0 °F - 64.9 °F 90% 30.16 in 10.0 mi Calm Calm - N/A   Clear
4:40 AM 68.0 °F - 65.3 °F 91% 30.15 in 10.0 mi East 3.5 mph - N/A   Clear
5:00 AM 68.0 °F - 65.5 °F 92% 30.16 in 10.0 mi Calm Calm - N/A   Scattered Clouds
5:20 AM 68.2 °F - 65.3 °F 90% 30.16 in 10.0 mi Calm Calm - N/A   Scattered Clouds
5:40 AM 68.0 °F - 65.5 °F 92% 30.17 in 10.0 mi Calm Calm - N/A   Scattered Clouds
5:45 AM 68.0 °F - 66.2 °F 94% 30.18 in 10.0 mi Calm Calm - N/A   Clear
6:45 AM 68.0 °F - 66.2 °F 94% 30.20 in 10.0 mi Calm Calm - N/A   Mostly Cloudy
7:50 AM 69.8 °F - 66.2 °F 88% 30.22 in 10.0 mi Calm Calm - N/A   Mostly Cloudy
8:50 AM 73.4 °F - 68.0 °F 83% 30.22 in 10.0 mi NE 4.6 mph - N/A   Mostly Cloudy
9:45 AM 75.2 °F - 68.0 °F 78% 30.24 in 10.0 mi NNE 4.6 mph - N/A   Mostly Cloudy
10:50 AM 78.8 °F - 66.2 °F 65% 30.24 in 10.0 mi ENE 4.6 mph - N/A   Mostly Cloudy
11:50 AM 80.6 °F 81.8 °F 62.6 °F 54% 30.25 in 10.0 mi Calm Calm - N/A   Mostly Cloudy
12:50 PM 82.4 °F 81.4 °F 53.6 °F 37% 30.24 in 10.0 mi Calm Calm - N/A   Mostly Cloudy
1:50 PM 82.4 °F 82.0 °F 57.2 °F 42% 30.23 in 10.0 mi Calm Calm - N/A   Mostly Cloudy
2:49 PM 84.2 °F 83.0 °F 55.4 °F 37% 30.22 in 10.0 mi Calm Calm - N/A   Mostly Cloudy
3:50 PM 82.4 °F 83.9 °F 64.4 °F 54% 30.21 in 10.0 mi North 8.1 mph - N/A   Mostly Cloudy
4:45 PM 80.6 °F 82.3 °F 64.4 °F 58% 30.21 in 10.0 mi NW 6.9 mph - N/A   Mostly Cloudy
5:52 PM 80.6 °F 82.3 °F 64.4 °F 58% 30.22 in 10.0 mi NW 4.6 mph - N/A   Mostly Cloudy
6:50 PM 78.8 °F - 64.4 °F 61% 30.23 in 10.0 mi North 3.5 mph - N/A   Mostly Cloudy
7:50 PM 77.0 °F - 64.4 °F 65% 30.24 in 10.0 mi East 4.6 mph - N/A   Mostly Cloudy
8:50 PM 73.4 °F - 64.4 °F 73% 30.26 in 10.0 mi ESE 4.6 mph - N/A   Scattered Clouds
9:45 PM 71.6 °F - 64.4 °F 78% 30.27 in 10.0 mi Calm Calm - N/A   Clear
10:20 PM 71.6 °F - 63.9 °F 76% 30.28 in 10.0 mi Calm Calm - N/A   Clear
10:40 PM 71.2 °F - 64.4 °F 79% 30.29 in 10.0 mi ESE 4.6 mph - N/A   Clear
11:00 PM 70.7 °F - 64.4 °F 80% 30.29 in 10.0 mi Calm Calm - N/A   Clear
11:20 PM 70.2 °F - 64.6 °F 82% 30.29 in 10.0 mi Calm Calm - N/A   Clear
11:40 PM 69.8 °F - 64.9 °F 84% 30.29 in 10.0 mi Calm Calm - N/A   Clear